Overview Statistics Trail Chart Weather Telemetry Raw packets
 

This is the latest recevied weather packets stored in our database for station/object IQ5VK-13. If no packets are shown the sender has not sent any weather packets the latest 10 day(s).

<< 1 2 3 4 5 6 >>
Time Temp. Humidity Pressure Rain* Wind** Luminosity Snow
1788504765 30.56° C 39% 1023.6 hPa - - - -
1788502370 27.78° C 44% 1023.6 hPa - - - -
1788501169 24.44° C 50% 1023.5 hPa - - - -
1788499998 21.67° C 53% 1023.5 hPa - - - -
1788498769 21.11° C 53% 1023.4 hPa - - - -
1788497569 20.56° C 54% 1023.4 hPa - - - -
1788496368 20.56° C 55% 1023.4 hPa - - - -
1788495205 20.56° C 54% 1023.4 hPa - - - -
1788495168 20.56° C 54% 1023.4 hPa - - - -
1788493967 21.11° C 52% 1023.3 hPa - - - -
1788492767 21.67° C 52% 1023.5 hPa - - - -
1788491567 21.67° C 50% 1023.6 hPa - - - -
1788490367 22.22° C 49% 1023.4 hPa - - - -
1788489166 21.67° C 48% 1023.5 hPa - - - -
1788487966 22.22° C 45% 1023.6 hPa - - - -
1788486766 22.22° C 45% 1023.6 hPa - - - -
1788485565 22.22° C 44% 1023.5 hPa - - - -
1788484365 22.22° C 42% 1023.5 hPa - - - -
1788483199 22.22° C 41% 1023.6 hPa - - - -
1788483165 22.22° C 41% 1023.6 hPa - - - -
1788480769 22.22° C 40% 1023.6 hPa - - - -
1788479569 22.78° C 41% 1023.6 hPa - - - -
1788478369 22.78° C 41% 1023.5 hPa - - - -
1788477168 22.22° C 42% 1023.5 hPa - - - -
1788475968 22.22° C 43% 1023.5 hPa - - - -

* Rain since midnight (hover to see other rain measurements)
** Current wind speed in m/s (hover to see current wind gust speed)